Regional Weather Roundup
Issued by NWS

Home | Current Version | Previous Version | Graphics & Text | Print | Product List | Glossary On
Versions: 1 2 3 4 5 6 7 8 9 10 11 12 13 14 15 16 17 18 19 20 21 22 23 24 25 26 27 28 29 30 31 32 33 34 35 36 37 38 39 40 41 42 43 44 45 46 47 48 49 50
000
ASUS43 KIND 261259
RWRIN

WEATHER ROUNDUP FOR INDIANA
NATIONAL WEATHER SERVICE INDIANAPOLIS IN
900 AM EDT SUN APR 26 2015

NOTE: "FAIR" INDICATES FEW OR NO CLOUDS BELOW 12,000 FEET WITH NO
SIGNIFICANT WEATHER AND/OR OBSTRUCTIONS TO VISIBILITY.

* - STATION DOES NOT REPORT WEATHER SUCH AS PRECIPITATION OR FOG.

+ - STATION NOT QUALITY CONTROLLED BY THE NATIONAL WEATHER SERVICE.
    USE DATA WITH CAUTION...ESPECIALLY DEWPOINT AND RELATIVE
    HUMIDITY OBSERVATIONS.

INZ001>003-010>013-019-020-261400-
NORTHWEST INDIANA

CITY           SKY/WX    TMP DP  RH WIND       PRES   REMARKS
GARY /AIRPORT/ SUNNY     43  30  61 NE9G21    29.98R

$$

LMZ046-743>745-261400-
SOUTHERN LAKE MICHIGAN

STATION/POSITION TIME  TEMP    WIND        PRES    WAVE
                       AIR SEA DIR/SP/G            HT
                 (UTC) (F)     (DEG/KT/KT) (MB)    (FT)
BURNS HARBOR     1200   43      50/ 17/ 18 1015.2R
MICHIGAN CITY    1200   40      30/ 16/ 17   N/A
5NW MICH CITY    1200   42 45   70/ 14/ 17   N/A     4

$$

INZ004-005-014>016-021>024-261400-
NORTH CENTRAL INDIANA

CITY           SKY/WX    TMP DP  RH WIND       PRES   REMARKS
ELKHART        SUNNY     41  27  56 NE5       29.94R
GOSHEN         SUNNY     41  30  65 NE10      29.93R
SOUTH BEND     SUNNY     43  29  57 NE9       29.96R

$$

INZ006>009-017-018-025>027-261400-
NORTHEAST INDIANA

CITY           SKY/WX    TMP DP  RH WIND       PRES   REMARKS
ANGOLA *+      SUNNY     39  27  60 NE8       29.91R
FORT WAYNE     MOSUNNY   42  30  62 NE15      29.90R

$$

INZ028-029-035-036-043>045-051>053-261400-
WEST CENTRAL INDIANA

CITY           SKY/WX    TMP DP  RH WIND       PRES   REMARKS
CRAWFORDSVL +  SUNNY     41  29  62 NE13      29.90R
GREENCASTLE +  MOSUNNY   43  30  61 NE13      29.89R
LAFAYETTE      SUNNY     43  31  62 NE8       29.92R
TERRE HAUTE    SUNNY     46  34  62 N10       29.90R

$$

INZ030>032-037>040-046>048-054>057-064-065-261400-
CENTRAL INDIANA

CITY           SKY/WX    TMP DP  RH WIND       PRES   REMARKS
COLUMBUS       SUNNY     43  32  65 N12       29.85R
GREENWOOD *+   CLOUDY    43  30  61 N12G18    29.87R
INDIANAPOLIS   MOSUNNY   44  30  57 NE16      29.86R
-EAGLE CREEK   SUNNY     44  31  60 N12       29.88R
KOKOMO *+      SUNNY     41  32  70 NE10      29.90R
MT COMFORT *+  SUNNY     43  27  52 NE12      29.88R
SHELBYVILLE    PTSUNNY   44  33  65 N13       29.85R

$$

INZ033-034-041-042-049-050-058-059-261400-
EAST CENTRAL INDIANA

CITY           SKY/WX    TMP DP  RH WIND       PRES   REMARKS
MUNCIE         SUNNY     41  31  67 NE16      29.87R

$$

INZ060-061-067>069-081>083-085>088-261400-
SOUTHWEST INDIANA

CITY           SKY/WX    TMP DP  RH WIND       PRES   REMARKS
EVANSVILLE     CLOUDY    49  40  71 N12       29.84R
HUNTINGBURG *+ CLOUDY    45  36  70 N13       29.85R

$$

INZ062-063-066-070>080-084-089>092-261400-
SOUTH CENTRAL AND SOUTHEAST INDIANA

CITY           SKY/WX    TMP DP  RH WIND       PRES   REMARKS
BLOOMINGTON    SUNNY     46  33  60 NE12      29.86R
MADISON *+     PTSUNNY   45  32  61 N8        29.84R
SEYMOUR +      SUNNY     46  36  66 N10G17    29.85R

$$




USA.gov is the U.S. government's official web portal to all federal, state and local government web resources and services.